Torna al catalogo

STARLINK-31905

AttivoComunicazioniVLEO
NORAD 59896·PAYLOAD·🇺🇸 United States

Lanciato May 28, 2024 da Cape Canaveral Space Force Station

Loading…

Prossimi Passaggi (prossime 24 ore)

TLE

AggiornatoSource: CelesTrak SupGP

Epoca: Sep 14, 2026, 15:10 UTC

1 59896C 24100M   26257.63243056  .00040130  00000+0  14537-2 0  2571
2 59896  43.0017 134.9994 0001524 259.5409  40.2834 15.27553618    14

Traccia STARLINK-31905 in tempo reale con AllMySat

Download on the App Store